TimeCST,TemperatureF,Dew PointF,Humidity,Sea Level PressureIn,VisibilityMPH,Wind Direction,Wind SpeedMPH,Gust SpeedMPH,PrecipitationIn,Events,Conditions,WindDirDegrees,DateUTC
12:15 AM,23.7,20.3,87,30.57,10.0,North,12.7,-,N/A,,Overcast,360,2013-11-23 06:15:00
12:35 AM,23.9,21.0,89,30.57,10.0,North,12.7,-,N/A,,Overcast,360,2013-11-23 06:35:00
12:55 AM,23.9,21.2,89,30.56,10.0,North,11.5,18.4,N/A,,Overcast,10,2013-11-23 06:55:00
1:15 AM,23.9,21.6,91,30.56,10.0,NNE,10.4,-,N/A,,Overcast,20,2013-11-23 07:15:00
1:35 AM,23.9,20.8,88,30.56,10.0,NNE,13.8,-,N/A,,Overcast,20,2013-11-23 07:35:00
1:55 AM,23.9,20.5,87,30.57,10.0,North,12.7,16.1,N/A,,Overcast,10,2013-11-23 07:55:00
2:15 AM,23.9,20.1,85,30.56,7.0,NNE,12.7,-,N/A,,Overcast,20,2013-11-23 08:15:00
2:35 AM,23.0,19.2,85,30.56,7.0,North,10.4,17.3,N/A,,Overcast,10,2013-11-23 08:35:00
2:55 AM,23.4,20.3,88,30.56,10.0,North,13.8,-,N/A,,Overcast,10,2013-11-23 08:55:00
3:15 AM,23.5,20.8,89,30.57,10.0,North,13.8,17.3,N/A,,Overcast,10,2013-11-23 09:15:00
3:35 AM,23.4,20.8,90,30.56,10.0,North,17.3,-,N/A,,Overcast,360,2013-11-23 09:35:00
3:55 AM,23.0,20.3,89,30.57,10.0,North,12.7,18.4,N/A,,Overcast,360,2013-11-23 09:55:00
4:15 AM,23.0,20.7,91,30.57,10.0,North,15.0,-,N/A,,Overcast,360,2013-11-23 10:15:00
4:35 AM,23.0,20.3,89,30.57,10.0,North,11.5,17.3,N/A,,Overcast,10,2013-11-23 10:35:00
4:55 AM,23.0,20.5,90,30.57,10.0,North,12.7,-,N/A,,Overcast,10,2013-11-23 10:55:00
5:15 AM,23.0,20.7,91,30.58,7.0,North,12.7,-,N/A,Snow,Light Snow,360,2013-11-23 11:15:00
5:35 AM,23.0,20.8,91,30.57,5.0,North,11.5,16.1,N/A,Snow,Light Snow,360,2013-11-23 11:35:00
5:55 AM,23.5,21.2,91,30.58,7.0,North,11.5,-,N/A,,Overcast,360,2013-11-23 11:55:00
6:15 AM,23.5,21.2,91,30.58,7.0,North,11.5,-,N/A,,Overcast,360,2013-11-23 12:15:00
6:35 AM,23.7,21.6,91,30.58,10.0,North,10.4,-,N/A,,Overcast,360,2013-11-23 12:35:00
6:55 AM,23.5,21.2,91,30.58,10.0,North,11.5,-,N/A,,Overcast,360,2013-11-23 12:55:00
7:15 AM,23.7,19.2,83,30.59,10.0,North,9.2,-,N/A,,Overcast,360,2013-11-23 13:15:00
7:35 AM,23.9,18.5,80,30.58,10.0,North,10.4,16.1,N/A,,Overcast,10,2013-11-23 13:35:00
7:55 AM,24.3,18.7,79,30.60,10.0,North,10.4,-,N/A,,Overcast,10,2013-11-23 13:55:00
8:15 AM,24.8,19.4,80,30.61,10.0,North,9.2,-,N/A,,Overcast,360,2013-11-23 14:15:00
8:35 AM,25.5,19.6,78,30.63,10.0,North,10.4,-,N/A,,Overcast,360,2013-11-23 14:35:00
8:55 AM,26.1,19.4,76,30.63,10.0,North,12.7,-,N/A,,Overcast,360,2013-11-23 14:55:00
9:15 AM,26.6,18.9,73,30.62,10.0,North,11.5,-,N/A,,Overcast,10,2013-11-23 15:15:00
9:35 AM,27.3,18.3,69,30.63,10.0,NNE,11.5,-,N/A,,Overcast,30,2013-11-23 15:35:00
9:55 AM,28.0,16.2,61,30.63,10.0,NNE,10.4,-,N/A,,Overcast,30,2013-11-23 15:55:00
10:15 AM,28.9,14.5,55,30.63,10.0,NE,15.0,-,N/A,,Overcast,40,2013-11-23 16:15:00
10:35 AM,29.3,12.4,49,30.64,10.0,NE,12.7,19.6,N/A,,Overcast,40,2013-11-23 16:35:00
10:55 AM,29.3,11.3,47,30.64,10.0,NE,17.3,-,N/A,,Overcast,40,2013-11-23 16:55:00
11:15 AM,30.0,11.7,46,30.63,10.0,NE,19.6,-,N/A,,Overcast,40,2013-11-23 17:15:00
11:35 AM,30.6,11.5,45,30.62,10.0,NE,15.0,-,N/A,,Overcast,50,2013-11-23 17:35:00
11:55 AM,30.7,11.1,44,30.62,10.0,NE,15.0,20.7,N/A,,Overcast,40,2013-11-23 17:55:00
12:15 PM,31.1,10.6,42,30.63,10.0,NE,11.5,-,N/A,,Overcast,50,2013-11-23 18:15:00
12:35 PM,31.6,11.3,43,30.61,10.0,NE,15.0,-,N/A,,Overcast,40,2013-11-23 18:35:00
12:55 PM,32.0,11.7,43,30.60,10.0,NE,16.1,-,N/A,,Overcast,50,2013-11-23 18:55:00
1:15 PM,31.8,11.3,43,30.61,10.0,NE,11.5,-,N/A,,Overcast,40,2013-11-23 19:15:00
1:35 PM,32.0,10.0,40,30.59,10.0,NE,15.0,-,N/A,,Overcast,40,2013-11-23 19:35:00
1:55 PM,32.0,11.1,42,30.59,10.0,NE,10.4,-,N/A,,Overcast,40,2013-11-23 19:55:00
2:15 PM,32.0,10.4,41,30.59,10.0,NE,10.4,-,N/A,,Overcast,50,2013-11-23 20:15:00
2:35 PM,32.2,12.2,44,30.57,10.0,NE,11.5,-,N/A,,Overcast,40,2013-11-23 20:35:00
2:55 PM,32.5,12.9,44,30.57,10.0,NE,11.5,-,N/A,,Overcast,40,2013-11-23 20:55:00
3:15 PM,32.2,13.6,46,30.58,10.0,NE,10.4,-,N/A,,Overcast,40,2013-11-23 21:15:00
3:35 PM,32.0,14.9,49,30.59,10.0,NNE,9.2,-,N/A,,Overcast,30,2013-11-23 21:35:00
3:55 PM,32.0,15.1,50,30.60,10.0,NNE,6.9,-,N/A,,Overcast,30,2013-11-23 21:55:00
4:15 PM,32.0,15.6,51,30.61,10.0,NNE,8.1,-,N/A,,Overcast,20,2013-11-23 22:15:00
4:35 PM,31.8,15.1,50,30.61,10.0,NE,6.9,-,N/A,,Overcast,40,2013-11-23 22:35:00
4:55 PM,31.6,16.7,54,30.60,10.0,NE,9.2,-,N/A,,Overcast,40,2013-11-23 22:55:00
5:15 PM,31.3,16.7,55,30.61,10.0,NE,5.8,-,N/A,,Overcast,40,2013-11-23 23:15:00
5:35 PM,31.1,17.4,57,30.60,10.0,NE,5.8,-,N/A,,Overcast,40,2013-11-23 23:35:00
5:55 PM,29.3,19.6,67,30.60,2.0,NE,6.9,16.1,N/A,Snow,Light Snow,50,2013-11-23 23:55:00
6:15 PM,27.3,22.8,83,30.61,1.2,ENE,8.1,-,N/A,Snow,Snow,60,2013-11-24 00:15:00
6:35 PM,26.6,23.5,88,30.61,1.2,ENE,5.8,-,N/A,Snow,Light Snow,60,2013-11-24 00:35:00
6:55 PM,26.4,23.9,90,30.59,2.0,ENE,9.2,-,N/A,Snow,Light Snow,60,2013-11-24 00:55:00
7:15 PM,26.2,23.7,90,30.58,4.0,ENE,11.5,-,N/A,Snow,Light Snow,60,2013-11-24 01:15:00
7:35 PM,25.7,23.0,89,30.59,5.0,NE,8.1,-,N/A,Snow,Light Snow,50,2013-11-24 01:35:00
7:55 PM,25.7,23.0,89,30.59,5.0,NE,6.9,-,N/A,Snow,Light Snow,50,2013-11-24 01:55:00
8:15 PM,25.5,23.0,90,30.60,3.0,NE,5.8,-,N/A,Snow,Light Snow,50,2013-11-24 02:15:00
8:35 PM,25.5,23.0,90,30.59,7.0,NE,6.9,-,N/A,Snow,Light Snow,50,2013-11-24 02:35:00
8:55 PM,25.5,23.0,90,30.57,7.0,ENE,9.2,-,N/A,,Overcast,60,2013-11-24 02:55:00
9:15 PM,25.5,22.8,89,30.56,10.0,NE,11.5,-,N/A,,Overcast,50,2013-11-24 03:15:00
9:35 PM,25.5,22.8,89,30.56,10.0,NE,10.4,-,N/A,,Overcast,40,2013-11-24 03:35:00
9:55 PM,25.5,22.8,89,30.57,10.0,NNE,10.4,-,N/A,,Overcast,30,2013-11-24 03:55:00
10:15 PM,25.7,23.0,89,30.57,10.0,NNE,8.1,-,N/A,,Overcast,20,2013-11-24 04:15:00
10:35 PM,25.7,23.0,89,30.58,10.0,North,5.8,-,N/A,,Overcast,360,2013-11-24 04:35:00
10:55 PM,25.7,22.8,89,30.59,7.0,North,6.9,-,N/A,,Overcast,350,2013-11-24 04:55:00
11:15 PM,25.7,23.0,89,30.59,10.0,Calm,Calm,-,N/A,,Overcast,0,2013-11-24 05:15:00
11:35 PM,25.7,23.0,89,30.60,10.0,NW,4.6,-,N/A,,Overcast,310,2013-11-24 05:35:00
11:55 PM,25.7,23.0,89,30.61,10.0,WNW,3.5,-,N/A,,Overcast,300,2013-11-24 05:55:00